CW3827 Weather Reports


Display with metric or nautical units.
time (UTC)temp
F
wind
direction
speed
MPH
gust
MPH
rain 1hr
in
rain 24hr
in
rain mn
in
humidity
%
barometer
mb
20260903014518 78 112 4.0 13.0 0.00 0.00 0.00 40 1022.5
20260903013015 77 105 6.0 7.0 0.00 0.00 0.00 41 1022.2
20260903011509 79 70 6.0 8.0 0.00 0.00 0.00 38 1022.3
20260903010006 82 108 3.0 6.0 0.00 0.00 0.00 33 1022.2
20260903004503 83 124 7.0 11.0 0.00 0.00 0.00 31 1022.1
20260903003003 83 146 5.0 13.0 0.00 0.00 0.00 31 1022.1
20260903001505 84 116 5.0 12.0 0.00 0.00 0.00 31 1022.2
20260903000017 85 103 11.0 16.0 0.00 0.00 0.00 29 1022.3
20260902234511 86 115 9.0 19.0 0.00 0.00 0.00 27 1022.3
20260902233014 85 354 14.0 20.0 0.00 0.00 0.00 29 1022.2
20260902231507 86 349 11.0 21.0 0.00 0.00 0.00 27 1022.2
20260902230006 86 105 13.0 18.0 0.00 0.00 0.00 28 1022.5
20260902224506 85 356 8.0 19.0 0.00 0.00 0.00 28 1022.7
20260902223024 85 340 10.0 16.0 0.00 0.00 0.00 30 1022.8
20260902221518 86 354 14.0 22.0 0.00 0.00 0.00 28 1022.9
20260902220019 85 95 9.0 18.0 0.00 0.00 0.00 30 1023.0
20260902214512 85 355 8.0 19.0 0.00 0.00 0.00 30 1023.2
20260902213008 86 337 10.0 18.0 0.00 0.00 0.00 29 1023.4
20260902211503 86 347 9.0 23.0 0.00 0.00 0.00 30 1023.4
20260902210035 86 16 16.0 23.0 0.00 0.00 0.00 29 1023.7
20260902204524 87 108 11.0 28.0 0.00 0.00 0.00 31 1023.9
20260902203018 86 325 11.0 23.0 0.00 0.00 0.00 30 1024.3
20260902201518 84 100 7.0 23.0 0.00 0.00 0.00 33 1024.4
20260902200008 86 342 9.0 16.0 0.00 0.00 0.00 33 1024.5
20260902194508 85 131 10.0 22.0 0.00 0.00 0.00 34 1024.6
20260902193027 85 103 8.0 20.0 0.00 0.00 0.00 33 1024.8
20260902191527 85 352 4.0 17.0 0.00 0.00 0.00 33 1025.0
20260902190027 85 101 15.0 21.0 0.00 0.00 0.00 33 1025.4
20260902184517 84 121 6.0 22.0 0.00 0.00 0.00 34 1025.6
20260902183011 83 342 11.0 16.0 0.00 0.00 0.00 34 1025.7
20260902181531 84 322 8.0 16.0 0.00 0.00 0.00 34 1025.8
20260902180028 84 355 11.0 19.0 0.00 0.00 0.00 36 1025.9
20260902174528 83 355 8.0 18.0 0.00 0.00 0.00 36 1026.2
20260902173028 82 338 7.0 17.0 0.00 0.00 0.00 38 1026.2
20260902171519 82 334 7.0 18.0 0.00 0.00 0.00 39 1026.2
20260902170016 82 30 8.0 15.0 0.00 0.00 0.00 38 1026.4
20260902164535 81 355 9.0 15.0 0.00 0.00 0.00 37 1026.4
20260902163032 81 356 9.0 11.0 0.00 0.00 0.00 38 1026.3
20260902161535 80 252 4.0 9.0 0.00 0.00 0.00 41 1026.4
20260902160004 79 319 3.0 7.0 0.00 0.00 0.00 43 1026.3
20260902154503 78 312 3.0 9.0 0.00 0.00 0.00 44 1026.2
20260902153021 78 338 2.0 11.0 0.00 0.00 0.00 46 1026.1
20260902151516 78 231 0.0 4.0 0.00 0.00 0.00 45 1026.1
20260902150013 78 262 2.0 5.0 0.00 0.00 0.00 45 1026.0
20260902144506 79 167 0.0 0.0 0.00 0.00 0.00 45 1025.8
20260902143004 75 174 0.0 5.0 0.00 0.00 0.00 48 1025.7
20260902141525 73 112 5.0 8.0 0.00 0.00 0.00 54 1025.9
20260902140020 70 94 7.0 12.0 0.00 0.00 0.00 59 1025.9
20260902134517 68 86 8.0 14.0 0.00 0.00 0.00 62 1025.8
20260902133017 65 57 9.0 12.0 0.00 0.00 0.00 68 1025.5
20260902131512 64 73 4.0 7.0 0.00 0.00 0.00 68 1025.2
20260902130007 62 30 2.0 6.0 0.00 0.00 0.00 69 1025.0
20260902124528 63 67 4.0 8.0 0.00 0.00 0.00 67 1025.0
20260902123027 61 61 6.0 7.0 0.00 0.00 0.00 72 1024.8
20260902121526 61 47 7.0 9.0 0.00 0.00 0.00 73 1024.9
20260902120018 61 57 10.0 13.0 0.00 0.00 0.00 74 1024.8
20260902114530 62 68 9.0 14.0 0.00 0.00 0.00 71 1024.8
20260902113009 63 67 7.0 7.0 0.00 0.00 0.00 68 1024.7
20260902111529 62 72 6.0 8.0 0.00 0.00 0.00 69 1024.7
20260902110028 63 47 5.0 7.0 0.00 0.00 0.00 67 1024.7
20260902104526 64 59 6.0 7.0 0.00 0.00 0.00 65 1024.8
20260902103024 65 71 5.0 6.0 0.00 0.00 0.00 64 1024.8
20260902101518 64 70 5.0 7.0 0.00 0.00 0.00 65 1024.8
20260902100017 62 77 5.0 7.0 0.00 0.00 0.00 70 1024.8
20260902094530 64 70 7.0 9.0 0.00 0.00 0.00 67 1024.8
20260902093030 64 60 5.0 7.0 0.00 0.00 0.00 66 1024.9
20260902091528 65 82 2.0 3.0 0.00 0.00 0.00 63 1024.8
20260902090029 64 46 5.0 8.0 0.00 0.00 0.00 66 1024.9
20260902084524 63 32 4.0 6.0 0.00 0.00 0.00 68 1024.8
20260902083020 65 51 6.0 9.0 0.00 0.00 0.00 64 1024.6
20260902081533 64 72 4.0 10.0 0.00 0.00 0.00 67 1024.8
20260902080005 65 37 8.0 10.0 0.00 0.00 0.00 66 1024.8
20260902074506 64 47 7.0 9.0 0.00 0.00 0.00 68 1025.0
20260902073007 64 47 7.0 10.0 0.00 0.00 0.00 69 1025.0
20260902071506 65 47 7.0 9.0 0.00 0.00 0.00 68 1025.0
20260902070007 65 56 5.0 8.0 0.00 0.00 0.00 67 1024.8
20260902064508 67 64 6.0 11.0 0.00 0.00 0.00 64 1025.0
20260902063009 66 83 9.0 11.0 0.00 0.00 0.00 66 1025.1
20260902061518 65 55 8.0 11.0 0.00 0.00 0.00 69 1025.1
20260902060010 65 59 7.0 10.0 0.00 0.00 0.00 69 1025.1
20260902054509 67 65 9.0 11.0 0.00 0.00 0.00 66 1025.1
20260902053010 68 60 8.0 13.0 0.00 0.00 0.00 65 1025.1
20260902051511 67 65 9.0 11.0 0.00 0.00 0.00 66 1025.3
20260902050020 68 68 10.0 13.0 0.00 0.00 0.00 64 1025.4
20260902044512 68 44 11.0 16.0 0.00 0.00 0.00 64 1025.5
20260902043013 67 61 11.0 13.0 0.00 0.00 0.00 69 1025.5
20260902041522 67 68 6.0 8.0 0.00 0.00 0.00 70 1025.5
20260902040014 70 85 4.0 9.0 0.00 0.00 0.00 60 1025.3
20260902034514 70 108 7.0 9.0 0.00 0.00 0.00 60 1025.2
20260902033018 72 98 6.0 10.0 0.00 0.00 0.00 56 1025.0
20260902031521 71 102 7.0 11.0 0.00 0.00 0.00 59 1024.8
20260902030016 68 79 9.0 11.0 0.00 0.00 0.00 67 1024.6
20260902024517 67 74 6.0 8.0 0.00 0.00 0.00 71 1024.4
20260902023020 66 77 7.0 8.0 0.00 0.00 0.00 76 1024.2
20260902021532 66 81 5.0 7.0 0.00 0.00 0.00 80 1024.2
20260902020017 66 63 6.0 9.0 0.00 0.00 0.00 79 1024.2